#timestamp,LO_Frequency,Hit,StdDev 
1638601215.3,286047002.7,N
1638601235.1,286046999.8,N
1638601255.9,286046999.8,N
1638601275.7,286047001.6,N
1638601295.5,286047002.3,N
1638601315.4,286047001.6,N
1638601335.2,286047001.3,N
1638601355.1,286047003.9,N
1638601356.0,286047003.9,N
1638601375.8,286047001.8,N
1638601395.7,286047000.8,N
1638601415.5,286047000.9,N
1638601435.3,286047000.5,N
1638601455.2,286047001.2,N
1638601475.0,286046998.2,N
1638601475.9,286046998.2,N
1638601495.7,286046998.5,N
1638601515.6,286046998.5,N
1638601535.4,286046998.5,N
1638601555.3,286047000.6,N
1638601575.1,286047000.9,N
1638601576.0,286047000.9,N
1638601595.8,286047000.2,N
1638601615.7,286047001.0,N
1638601635.5,286047000.5,N
1638601655.3,286047002.3,N
1638601675.2,286047001.0,N
1638601695.0,286047001.2,N
1638601695.9,286047001.2,N
1638601715.8,286047000.9,N
1638601735.6,286047000.6,N
1638601755.4,286047000.0,N
1638601775.3,286047000.3,N
1638601795.1,286047002.7,N
1638601815.8,286046999.7,N
1638601835.7,286047002.6,N
1638601855.5,286047000.2,N
1638601875.4,286047002.1,N
1638601895.2,286047000.2,N
1638601915.0,286047001.6,N
1638601915.9,286047001.6,N
1638601935.8,286046999.9,N
1638601955.6,286046999.9,N
1638601975.5,286047002.5,N
1638601995.3,286047000.4,N
1638602015.1,286047002.4,N
1638602035.9,286047002.3,N
1638602055.7,286047000.3,N
1638602075.5,286047000.8,N
1638602095.4,286047000.2,N
1638602115.2,286046999.8,N
1638602135.1,286047000.1,N
1638602136.0,286047000.1,N
1638602155.8,286047002.0,N
1638602175.6,286047002.4,N
1638602195.5,286047002.4,N
1638602215.3,286046999.9,N
1638602235.2,286046999.8,N
1638602255.9,286047000.9,N
1638602275.7,286046999.9,N
1638602295.6,286047002.8,N
1638602315.4,286047001.9,N
1638602335.2,286047000.1,N
1638602355.1,286047002.0,N
1638602356.0,286047002.0,N
1638602375.8,286047002.7,N
1638602395.7,286047002.8,N
1638602415.5,286047002.0,N
1638602435.3,286047001.5,N
1638602455.2,286047001.9,N
1638602475.0,286047002.7,N
1638602475.9,286047002.7,N
1638602495.8,286046999.8,N
1638602515.6,286046999.7,N
1638602535.4,286047002.8,N
1638602555.3,286047000.3,N
1638602575.1,286047000.2,N
1638602595.9,286047001.2,N
1638602615.7,286047002.6,N
1638602635.5,286047001.9,N
1638602655.4,286047002.7,N
1638602675.2,286047002.4,N
1638602695.0,286047002.0,N
1638602695.9,286047002.0,N
1638602715.8,286047004.0,Y
1638602735.6,286047002.6,P
1638602755.5,286047002.8,P
1638602775.3,286047002.2,P
1638602795.1,286047002.6,Y
1638602815.9,286046998.4,P
1638602835.7,286046999.4,N
1638602855.5,286046996.6,N
1638602875.4,286046996.7,N
1638602895.2,286046996.5,N
1638602915.1,286046999.6,N
1638602916.0,286046999.6,N
1638602935.8,286046999.2,N
1638602955.6,286046998.7,N
1638602975.5,286046998.9,N
1638602995.3,286046996.9,N
1638603015.2,286046996.6,N
1638603035.9,286046999.5,N
1638603055.7,286046999.4,N
1638603075.6,286046998.4,N
1638603095.4,286046998.6,N
1638603115.3,286047000.6,N
1638603135.1,286047001.0,N
1638603136.0,286047001.0,N
1638603155.8,286046998.1,N
1638603175.7,286046998.5,N
1638603195.5,286047000.7,N
1638603215.3,286046998.1,N
1638603235.2,286046998.6,N
1638603255.0,286047001.0,N
1638603255.9,286047001.0,N
1638603275.8,286047000.6,N
1638603295.6,286047000.4,N
1638603315.4,286046998.2,N
1638603335.3,286047001.2,N
1638603355.1,286046998.5,N
1638603375.8,286047000.7,N
1638603395.7,286047000.9,N
1638603415.5,286047000.4,N
1638603435.4,286046998.2,N
1638603455.2,286046998.5,N
1638603475.0,286046998.5,N
1638603475.9,286046998.5,N
1638603495.8,286046999.1,N
1638603515.6,286046999.2,N
1638603535.4,286046999.6,N
1638603555.3,286046999.5,N
1638603575.1,286046999.2,N
1638603595.9,286046999.1,N
1638603615.7,286046999.1,N
1638603635.5,286046999.0,N
1638603655.4,286046999.6,N
1638603675.2,286046996.8,Y
1638603695.0,286046997.1,P
1638603696.0,286046997.1,N
1638603715.8,286046997.7,N
1638603735.6,286046997.3,N
1638603755.5,286046997.2,Y
1638603775.3,286046998.1,P
1638603795.1,286047000.2,N
1638603815.9,286046998.1,N
1638603835.7,286046999.3,N
1638603855.6,286046998.3,N
1638603875.4,286047001.0,N
1638603895.2,286047000.2,N
1638603915.1,286047000.6,N
1638603916.0,286047000.6,N
1638603935.8,286047002.7,N
1638603955.6,286046998.7,N
1638603975.5,286046999.0,N
1638603995.3,286046998.1,N
1638604015.2,286046999.9,N
1638604035.9,286047000.3,N
1638604055.7,286046998.1,N
1638604075.6,286046998.2,N
1638604095.4,286047001.0,N
1638604115.2,286046998.5,N
1638604135.1,286046998.4,N
1638604136.0,286046998.4,N
1638604155.8,286047000.8,N
1638604175.7,286047000.7,N
1638604195.5,286047000.7,N
1638604215.3,286047000.6,N
1638604235.2,286047001.2,N
1638604255.9,286047001.0,N
1638604275.7,286047000.9,N
1638604295.6,286047000.9,N
1638604315.4,286046999.9,N
1638604335.3,286047000.8,N
1638604355.1,286046999.5,N
1638604356.0,286046999.5,N
1638604375.8,286046997.5,N
1638604395.7,286046998.0,N
1638604415.5,286046997.2,N
1638604435.3,286046997.4,N
1638604455.2,286046997.3,N
1638604475.0,286046996.6,N
1638604475.9,286046996.6,N
1638604495.8,286046999.2,N
1638604515.6,286046999.3,N
1638604535.4,286047000.7,N
1638604555.3,286047001.0,N
1638604575.1,286046998.8,N
1638604595.8,286047000.7,N
1638604615.7,286046996.7,N
1638604635.5,286046997.6,N
1638604655.4,286046994.9,Y
1638604675.2,286046998.0,P
1638604695.0,286046995.3,P
1638604695.9,286046995.3,N
1638604715.8,286046995.0,N
1638604735.6,286046995.5,N
1638604755.4,286046995.4,N
1638604775.3,286046997.7,N
1638604795.1,286046996.7,N
